Terug naar catalogus

GOES 18

ActiefWeerGEO
NORAD 51850·PAYLOAD·🇺🇸 United States

Gelanceerd Mar 1, 2022 vanaf Cape Canaveral Space Force Station

Loading…

TLE

VersSource: Space-Track

Epoch: Sep 14, 2026, 18:17 UTC

1 51850U 22021A   26257.76184088  .00000089  00000-0  00000-0 0  9997
2 51850   0.0449 342.3269 0000193 225.6051 283.0760  1.00270768  7498

Volg GOES 18 in realtime met AllMySat

Download on the App Store